GFSSGP_250_rhum_000.txt.gz
RH
100 100 100 100 100 100 99 100 100 97 100 100 100 100 99 92 85 87 92 90 75 71 69 73 76 69 71 67 70 55 49 41 40 29 43 52 50 75 100 94 71 51 23 11 12 13 12 13 14
100 100 100 100 100 100 100 100 100 100 100 100 100 100 94 100 100 81 76 80 77 66 79 76 72 80 82 76 73 56 51 47 53 51 57 64 86 97 84 70 55 22 11 14 13 14 13 13 13
98 100 100 100 100 100 100 100 98 100 100 100 94 96 93 96 98 84 91 86 69 68 87 67 80 84 76 67 65 61 54 58 74 59 77 96 95 85 74 61 27 14 14 15 14 14 14 13 12
30 100 100 100 100 100 100 100 100 100 100 100 100 100 90 72 79 80 86 83 85 94 76 68 68 74 81 76 73 67 74 88 84 96 90 99 96 75 63 37 16 16 17 14 15 14 13 12 12
24 99 100 100 100 100 100 100 100 100 100 100 100 100 100 100 100 100 100 97 95 91 79 82 93 94 82 72 74 92 100 97 88 92 100 100 91 73 45 18 15 15 14 15 16 14 14 14 14
22 99 100 100 100 100 100 97 96 100 100 100 100 100 94 82 100 100 100 100 100 100 100 98 97 83 86 95 100 100 91 90 95 100 99 91 76 56 21 15 17 17 16 17 17 16 16 15 16
23 50 100 100 100 100 100 100 100 100 100 100 100 89 70 78 100 100 100 100 100 100 100 91 84 100 100 100 89 94 100 100 100 100 96 76 51 25 22 24 20 19 18 17 16 15 15 16 18
59 42 100 100 100 100 100 100 100 100 100 100 95 94 100 100 100 100 100 100 100 100 90 77 87 100 93 95 100 89 100 100 100 94 75 48 22 21 20 22 20 20 19 16 15 15 15 16 19
20 22 51 100 100 100 100 100 100 100 100 100 95 96 100 100 100 100 100 99 95 91 93 92 94 95 100 100 100 100 100 98 86 68 43 20 16 17 20 19 18 14 12 12 15 18 18 20 22
36 62 45 100 100 100 100 100 100 100 100 100 100 100 100 98 93 98 90 94 100 100 100 100 100 100 100 100 100 100 96 80 64 43 34 26 19 22 22 18 14 12 11 12 18 23 24 22 24
38 100 100 100 100 100 100 100 100 100 100 100 100 96 98 100 99 100 100 100 100 100 93 99 100 100 100 100 100 90 82 75 64 57 80 68 33 41 16 13 13 12 15 20 21 23 25 29 30
58 44 30 44 95 100 100 100 100 100 100 100 100 100 100 100 100 100 100 100 100 100 100 100 100 100 100 100 85 93 92 100 96 94 100 100 100 69 22 13 16 21 22 25 29 40 40 43 41
66 52 35 29 100 100 100 100 100 100 100 100 100 100 100 100 100 100 100 100 100 100 100 100 100 100 100 90 100 100 94 100 100 100 100 100 78 34 22 20 20 24 28 37 41 43 39 37 37
77 70 87 77 82 100 100 100 100 100 100 100 100 100 100 100 100 100 100 100 100 100 100 100 100 97 89 89 100 100 100 100 100 100 100 98 51 22 17 21 34 36 36 38 37 37 30 27 28
68 64 68 100 100 100 100 100 100 100 100 100 100 100 100 100 100 100 100 99 89 89 91 88 81 68 57 36 49 96 100 93 100 89 84 56 25 21 25 35 33 31 37 39 39 36 34 34 36
50 54 47 38 23 30 46 77 100 100 100 100 100 100 100 96 88 81 60 47 67 74 70 56 36 36 24 26 58 64 94 89 94 60 46 25 29 47 43 48 39 32 31 34 35 34 36 39 42
45 33 37 35 26 20 42 86 87 77 99 57 36 70 81 74 50 48 58 55 52 47 36 23 60 48 88 38 24 34 37 25 19 21 24 22 23 34 39 44 44 43 41 40 37 33 34 39 42
10 11 18 30 27 26 26 29 26 22 25 32 39 45 51 54 51 56 86 82 44 34 35 64 63 64 29 36 29 25 23 22 23 23 21 24 33 38 34 34 38 39 42 44 44 40 40 41 39
9 8 11 16 26 31 38 43 45 50 54 61 61 57 52 47 46 38 33 33 30 26 31 47 18 18 19 19 20 19 21 22 22 22 39 50 43 37 36 32 30 30 28 27 30 33 34 37 36
50 49 45 52 68 65 72 76 75 70 61 55 46 39 38 35 34 36 33 30 26 20 16 16 16 16 16 17 19 22 21 20 22 40 50 50 42 36 32 32 31 30 33 36 36 36 34 37 44
81 87 86 77 67 68 58 37 35 39 37 40 42 38 31 28 28 27 25 20 18 16 16 16 16 16 17 18 19 19 20 29 46 56 54 44 41 40 37 35 37 37 35 36 40 44 48 52 52
46 38 36 34 28 22 20 18 20 21 22 22 24 26 26 21 19 17 16 17 18 17 16 16 15 16 16 18 22 34 44 47 43 41 37 37 35 36 42 44 41 42 46 43 47 50 58 65 74
18 18 16 18 18 18 16 15 17 20 24 23 22 24 24 24 24 19 19 17 16 16 16 16 16 22 33 40 45 42 36 40 37 35 38 44 47 51 57 59 55 50 50 62 67 58 60 63 61
21 20 20 21 22 20 19 19 21 22 24 32 39 34 28 26 22 22 23 22 23 22 29 36 43 44 47 44 42 45 44 42 42 43 45 49 54 58 66 76 82 83 68 64 66 60 54 50 41
31 26 26 27 28 21 25 26 26 26 26 28 29 29 29 30 27 25 21 29 43 50 48 48 47 48 50 57 52 41 38 39 47 61 72 87 96 100 100 86 62 56 52 49 48 47 44 36 26
31 32 30 42 46 55 57 56 49 35 34 34 44 49 56 51 51 38 41 43 43 43 45 43 40 38 34 36 42 49 62 70 63 80 96 90 79 64 53 50 50 55 54 51 47 32 21 14 11
66 63 60 58 54 50 48 49 45 46 42 35 35 36 36 32 30 30 30 27 30 39 42 44 42 45 54 59 54 50 49 50 57 57 52 53 60 69 66 57 51 49 40 26 16 10 8 8 7
51 52 57 58 55 47 42 39 39 37 33 31 30 31 28 27 30 32 35 38 40 41 43 42 46 50 48 48 48 47 45 46 50 58 76 89 70 60 59 48 41 30 18 10 7 7 7 6 5
47 48 51 52 53 42 35 35 33 31 35 41 43 43 43 40 36 39 45 47 46 44 48 47 47 48 46 42 47 62 73 76 80 86 75 60 57 53 39 30 22 10 8 7 6 6 4 4 4
57 58 49 43 45 46 47 50 53 52 50 49 47 43 41 39 41 42 48 49 51 53 52 50 46 45 50 69 74 69 70 72 72 64 64 59 42 34 26 19 8 7 7 6 5 4 4 3 3

GFSSGP_250_rhum_003.txt.gz
RH
11 12 48 100 100 100 100 100 100 100 100 100 100 98 100 100 100 100 94 95 91 100 99 94 77 71 52 51 50 55 50 52 63 64 56 56 57 46 50 49 49 50 72 67 42 19 13 14 13
15 12 26 76 100 100 100 100 100 100 100 100 100 100 100 100 100 100 100 100 100 100 98 100 95 83 67 66 70 60 71 72 68 66 70 61 65 78 55 46 57 74 70 54 29 15 14 15 14
18 17 12 38 100 100 100 100 100 100 100 100 100 100 100 100 100 98 100 100 100 100 100 91 87 84 79 76 88 83 68 71 77 80 68 88 82 58 52 70 83 81 61 42 22 16 16 15 14
20 21 16 12 25 100 100 100 100 100 100 100 100 100 100 100 99 100 100 100 100 98 94 70 72 93 100 92 91 87 74 90 79 86 86 74 62 50 68 90 87 64 60 29 16 15 14 14 14
20 23 18 14 16 25 100 100 100 100 100 100 100 100 100 100 90 95 99 94 92 69 64 78 79 85 90 100 100 100 96 90 85 83 74 61 61 82 100 92 73 66 36 21 18 17 15 14 14
23 25 23 18 16 26 83 100 100 100 100 100 100 100 97 93 100 96 82 85 75 72 73 79 80 92 100 100 100 100 96 94 87 74 72 72 98 100 93 79 63 45 25 20 20 21 18 16 14
29 32 28 22 28 19 52 100 100 100 100 100 100 100 100 100 100 100 100 100 92 88 67 88 100 100 100 100 100 100 94 93 85 80 93 100 100 100 94 67 44 31 17 16 18 18 16 14 11
46 41 42 29 43 47 100 100 100 100 100 100 100 100 100 100 100 100 100 97 100 100 100 100 100 100 100 87 96 94 83 77 80 99 94 100 95 81 60 57 48 27 18 18 19 19 15 13 15
43 53 50 42 57 79 100 100 100 100 100 100 100 100 98 92 98 98 96 91 98 100 100 100 100 100 94 93 90 88 85 82 98 100 100 99 85 76 63 75 71 25 52 61 23 13 12 13 19
65 76 74 50 99 100 100 100 100 100 100 100 100 100 100 100 100 100 100 100 100 100 100 100 100 100 94 97 99 95 98 100 100 100 100 94 91 94 84 72 77 94 72 30 14 18 19 20 20
74 83 100 100 98 100 100 100 100 100 100 100 100 100 100 100 100 100 100 100 100 99 98 100 100 100 98 100 96 100 85 98 100 100 97 96 98 90 99 100 100 89 55 30 24 20 23 25 26
94 90 100 100 99 98 100 100 100 100 100 100 100 100 100 100 100 100 98 100 100 100 100 100 100 100 100 100 100 100 100 100 100 100 98 90 78 72 57 65 85 75 42 22 24 37 39 34 27
99 100 100 96 71 68 88 90 100 100 100 100 100 96 100 100 100 100 100 100 100 100 100 100 100 100 96 98 100 100 100 100 69 87 82 82 93 91 96 96 70 53 24 29 42 35 34 33 32
91 99 100 99 92 100 100 100 100 100 100 100 100 100 100 98 96 100 100 100 100 100 100 100 97 92 80 78 99 89 74 39 26 31 67 100 100 100 100 88 46 28 25 35 49 49 44 40 42
80 80 96 100 92 75 58 52 79 100 100 100 100 100 100 100 100 100 99 100 100 100 100 94 90 71 78 37 92 63 31 47 58 38 34 43 61 69 65 27 24 25 26 29 40 38 41 44 43
80 76 74 77 83 86 77 86 94 88 100 100 100 100 100 97 82 98 97 90 75 73 70 66 57 63 97 100 100 100 100 87 81 73 38 37 38 35 27 23 24 26 45 47 43 41 38 38 40
57 54 64 63 58 64 61 56 69 84 89 84 69 66 76 99 94 74 37 48 62 66 66 61 72 78 100 100 100 100 99 100 92 43 36 29 23 21 21 22 23 41 51 46 41 38 34 33 36
9 19 30 48 48 42 44 43 39 32 24 24 28 36 36 34 43 55 62 66 71 77 65 73 86 99 100 100 100 100 97 82 47 30 23 19 18 19 21 26 32 42 42 41 42 42 41 40 40
24 26 24 18 16 10 8 18 24 22 31 46 57 68 76 73 71 63 62 80 74 77 65 69 74 100 93 91 96 93 48 27 24 19 17 18 19 23 37 45 37 36 31 31 33 34 35 36 35
11 10 11 9 15 30 38 32 62 75 82 89 89 82 77 67 56 54 52 48 47 50 59 47 41 50 44 30 31 23 20 18 16 16 18 24 39 42 36 30 29 31 34 35 33 34 34 36 36
33 32 38 67 82 97 99 96 86 78 71 61 55 51 50 48 46 48 46 42 37 31 28 26 24 21 19 18 16 16 15 16 20 32 40 39 35 31 29 32 36 39 38 37 37 37 35 33 36
94 92 84 85 81 75 65 53 49 46 42 36 32 30 26 24 25 23 19 20 20 20 19 19 18 16 16 16 17 19 21 30 36 35 33 34 34 37 40 43 42 36 36 38 44 48 54 63 63
65 56 39 26 23 19 18 19 19 19 18 19 20 18 18 19 20 22 21 19 17 17 19 17 16 16 16 19 24 32 37 36 36 38 39 40 46 44 35 34 42 49 63 77 81 67 53 50 51
19 19 19 18 18 19 22 23 28 29 32 33 34 36 32 31 32 35 32 29 38 49 32 32 38 39 39 41 44 44 44 43 47 52 48 39 42 51 62 70 79 71 58 53 49 49 47 42 40
22 21 21 22 25 24 25 28 34 42 46 53 59 58 54 52 49 48 45 43 42 40 44 49 44 42 50 52 48 46 44 40 40 43 54 79 83 68 74 76 70 64 54 46 44 43 45 39 32
23 35 37 47 54 52 49 49 47 45 46 47 49 49 55 49 43 52 49 47 48 49 53 55 54 52 53 50 47 52 54 55 63 72 75 72 75 72 58 53 45 40 38 41 41 33 28 22 15
62 54 51 50 50 50 47 41 35 33 35 38 37 44 54 53 49 46 45 45 47 50 51 51 52 49 48 48 53 63 66 66 67 57 60 61 53 50 46 46 48 43 37 30 23 19 13 8 7
48 47 48 48 53 51 51 50 47 43 43 43 44 43 42 43 44 42 42 40 41 43 43 43 43 45 46 46 47 48 50 52 56 59 56 52 46 54 53 48 41 33 24 18 12 7 7 6 5
48 55 57 54 53 49 45 42 42 47 49 49 46 42 40 35 35 38 42 44 42 38 39 39 39 41 48 57 56 54 60 60 53 49 47 59 60 53 46 39 28 18 15 9 7 7 6 5 4
60 62 58 55 49 50 49 48 46 43 41 39 38 36 32 32 34 38 39 41 40 38 35 40 46 55 56 55 58 60 52 47 56 60 62 57 54 42 34 25 19 14 9 7 6 5 4 3 3

GFSSGP_250_rhum_006.txt.gz
RH
13 15 18 17 17 15 12 16 76 84 100 100 100 100 100 100 100 100 100 100 100 98 100 99 100 99 98 69 76 61 59 68 64 63 59 58 48 48 59 57 46 42 31 24 37 61 70 57 35
12 12 14 20 20 17 15 13 56 100 100 100 100 100 100 100 100 100 100 100 90 100 100 100 96 86 82 87 68 75 76 69 59 68 72 56 57 72 71 50 56 37 31 43 66 78 63 49 28
10 12 12 16 23 21 18 15 54 100 100 100 100 100 100 100 100 99 100 100 100 100 100 100 100 95 84 88 88 90 71 56 79 69 52 76 94 84 55 47 48 41 54 77 87 71 55 39 24
12 12 17 13 16 24 19 17 56 100 100 100 100 100 100 100 92 82 95 100 100 100 100 100 95 100 76 82 86 70 60 77 52 78 88 100 91 60 56 57 60 70 81 94 83 62 52 33 17
14 15 17 21 19 23 22 17 21 96 100 100 100 100 100 100 100 91 100 100 100 100 100 87 82 81 61 57 86 93 80 66 98 100 96 89 71 59 54 58 60 65 87 87 70 62 42 24 16
16 17 16 15 17 23 24 20 18 30 96 100 100 100 100 100 100 100 96 95 91 92 72 74 60 56 67 81 100 99 91 95 100 92 86 76 60 58 64 77 90 91 95 78 72 58 30 18 36
17 19 20 19 22 30 28 24 25 22 68 100 100 100 100 100 100 100 100 98 96 95 88 91 82 95 100 100 100 100 94 98 98 100 72 55 64 72 86 82 100 99 83 68 74 68 35 53 52
30 29 29 31 32 38 36 47 35 57 85 100 100 100 100 100 100 100 100 100 100 100 97 97 100 100 100 100 100 100 100 100 84 100 77 62 98 98 100 100 99 90 88 86 62 60 68 62 36
42 35 34 38 40 44 43 66 46 46 98 100 100 100 100 100 100 100 100 100 100 100 100 100 100 99 99 100 100 98 98 96 65 84 82 82 100 100 100 100 87 88 77 66 62 66 68 51 32
65 58 50 50 63 52 52 58 69 94 71 100 100 100 100 100 100 100 100 100 99 100 100 97 100 100 95 100 99 90 89 85 94 100 99 100 100 100 98 93 92 70 61 54 60 60 75 54 33
65 86 83 87 76 79 65 60 67 75 100 100 100 100 100 100 100 100 99 100 100 100 100 100 99 100 100 100 100 93 88 92 100 100 100 100 100 99 69 56 71 59 67 64 82 65 56 44 26
66 86 100 100 100 99 95 71 99 92 73 99 100 100 100 100 100 100 100 100 100 100 100 100 100 100 99 93 95 95 96 100 100 100 100 99 82 58 35 24 26 52 73 75 95 39 23 24 24
100 96 99 100 100 100 100 100 100 99 100 100 100 100 100 100 100 100 100 96 96 100 99 100 100 100 98 88 100 100 100 100 92 80 67 57 40 38 48 54 58 32 33 35 37 31 24 24 25
98 87 87 98 96 100 100 100 100 100 100 100 100 100 100 100 100 100 100 95 91 100 100 100 100 99 100 95 100 100 90 95 88 85 65 69 69 82 77 69 47 55 47 39 34 29 24 23 35
92 95 96 98 100 100 100 100 100 100 99 98 92 94 100 100 100 100 100 93 94 100 100 84 75 77 72 88 84 73 79 100 98 72 68 58 69 99 100 90 48 37 35 28 25 22 21 24 31
84 91 98 90 93 95 96 98 99 100 94 88 100 100 98 100 100 100 100 96 91 96 89 82 75 63 58 98 100 100 100 100 100 97 100 100 100 100 100 83 33 29 28 24 20 20 22 28 38
74 98 99 95 83 79 76 76 74 77 76 75 73 74 82 79 71 72 81 69 60 60 52 45 67 86 91 100 100 100 100 100 100 98 87 96 97 96 76 33 23 21 18 18 19 24 35 40 35
54 60 71 80 84 78 69 64 46 46 52 54 51 44 37 32 26 24 28 39 57 66 72 80 90 100 100 100 92 86 100 100 100 100 100 100 81 54 34 20 18 16 17 27 36 38 35 32 31
18 19 17 9 12 24 40 45 42 35 16 10 9 19 23 36 60 73 76 79 81 75 75 77 100 100 82 91 100 100 100 100 100 94 66 41 26 19 18 18 19 28 36 36 36 36 34 33 34
6 6 7 12 17 14 13 12 10 16 38 61 71 76 89 94 92 79 71 66 61 60 68 64 59 64 51 52 46 35 32 29 26 23 21 20 23 31 36 36 39 39 36 33 29 29 32 36 42
22 18 15 14 13 20 32 48 83 92 93 90 86 84 75 57 51 47 45 41 36 36 39 36 29 28 26 24 23 22 22 22 23 24 30 38 44 46 44 43 38 35 33 35 39 41 42 39 35
36 41 38 42 66 88 92 80 72 63 56 50 41 33 27 25 20 20 21 21 22 24 26 28 26 22 21 20 20 23 25 29 37 45 47 45 43 40 39 39 37 36 36 35 30 31 44 58 58
56 74 72 62 48 38 38 35 30 31 23 21 20 18 18 22 26 32 29 27 30 34 38 31 32 40 42 41 40 37 35 33 32 35 36 34 35 37 40 41 38 34 38 55 69 66 60 55 49
41 25 21 19 20 28 27 25 26 24 23 24 27 29 42 47 47 42 37 36 40 40 38 34 30 31 29 29 33 37 37 37 38 40 45 46 44 42 44 49 60 70 63 57 54 49 42 41 36
21 21 24 26 27 29 28 30 32 34 42 52 52 47 43 44 47 52 56 47 43 40 40 39 38 38 39 38 38 38 37 39 43 44 47 51 58 71 78 72 61 54 51 46 44 35 31 33 29
21 20 22 25 32 35 38 45 50 50 45 42 46 50 56 59 60 54 49 49 48 44 41 40 42 42 40 38 37 37 39 47 58 66 76 81 77 68 58 50 47 47 42 40 38 28 18 15 12
49 51 48 45 40 39 39 41 42 47 49 55 61 61 57 52 53 52 46 46 43 41 43 45 45 45 46 44 45 57 77 91 88 78 68 59 55 47 46 52 52 42 39 28 20 15 12 8 7
45 41 42 42 42 42 45 47 49 53 52 50 50 47 44 40 37 37 38 42 52 59 53 48 49 54 56 65 72 74 73 70 64 59 49 44 51 55 52 45 39 30 23 17 13 9 7 6 6
42 43 50 50 52 50 54 55 52 47 43 39 37 35 34 34 38 42 50 56 60 61 55 48 47 50 52 58 58 58 60 59 54 48 49 60 60 59 49 44 34 21 15 12 8 7 6 6 5
56 54 55 56 58 56 50 45 42 41 40 39 41 45 43 42 40 38 46 49 52 48 44 46 50 53 52 53 56 60 59 54 49 52 62 62 72 60 52 33 21 15 11 8 7 7 6 5 4

GFSSGP_250_rhum_009.txt.gz
RH
11 12 12 13 17 20 20 20 21 20 18 18 34 49 72 99 100 100 100 100 100 100 100 91 100 100 100 92 100 100 96 83 92 77 77 69 77 68 72 58 51 72 68 42 32 29 23 40 62
12 13 15 14 15 19 21 23 22 22 21 39 50 68 98 100 100 100 100 100 100 100 100 100 100 100 98 100 100 88 81 88 93 86 67 60 48 65 64 55 68 79 45 33 28 36 40 59 86
9 10 11 12 13 16 19 22 23 23 23 37 74 40 100 100 100 100 100 100 100 100 98 99 99 100 100 95 92 83 92 93 88 78 56 46 56 64 87 100 71 49 43 41 41 50 61 94 89
8 8 9 11 11 12 17 19 21 24 25 23 26 100 100 100 100 100 100 100 95 84 84 100 100 100 98 100 98 84 79 81 62 45 56 72 68 96 89 77 74 46 46 42 60 59 97 97 68
9 10 10 10 10 11 12 16 17 21 25 24 24 42 100 100 100 100 100 100 100 100 100 90 80 97 94 97 69 69 75 58 52 66 100 75 99 92 97 60 62 35 63 58 74 79 95 82 66
17 14 13 15 13 11 13 15 17 24 28 30 30 80 99 100 100 100 100 100 100 100 100 100 99 97 93 85 86 79 70 93 100 94 96 100 99 79 68 60 54 66 75 77 76 88 83 83 62
20 20 18 17 20 17 19 21 21 25 26 30 29 33 73 84 100 100 100 100 100 100 100 100 100 99 87 96 96 86 88 99 86 93 94 99 69 66 72 75 77 74 80 77 98 80 72 65 51
25 30 28 29 26 26 26 30 30 27 30 35 34 65 100 54 100 100 100 100 100 100 100 100 100 100 79 93 91 84 100 100 100 69 80 68 64 100 93 75 78 72 97 79 86 67 41 54 49
50 51 53 46 39 36 33 39 36 40 45 73 55 94 100 100 100 100 100 100 100 100 100 97 81 71 84 100 100 100 100 95 85 99 100 89 100 94 94 95 91 98 100 81 44 30 30 23 43
74 88 81 62 72 84 53 55 59 66 68 86 96 100 100 100 100 100 100 100 98 96 100 100 100 100 100 100 100 100 97 100 97 91 100 100 99 91 100 88 80 82 61 37 35 35 30 20 41
91 97 98 96 83 88 89 79 72 80 81 77 100 76 100 100 100 100 100 100 100 100 100 100 100 100 93 100 91 72 99 100 99 100 100 100 99 92 100 84 64 54 47 50 43 43 36 27 26
89 100 100 100 100 100 99 86 86 86 72 78 84 79 88 100 100 100 100 100 100 100 100 100 100 100 81 76 80 94 99 100 94 99 100 100 98 77 54 56 50 64 59 50 60 60 53 39 29
100 100 100 100 100 100 100 98 90 90 84 74 95 93 98 100 100 100 100 100 100 100 100 100 100 100 100 100 100 94 86 96 95 100 96 73 63 62 58 56 56 54 46 73 83 74 72 38 24
100 99 100 100 100 100 100 100 100 98 97 88 87 87 99 98 95 100 100 100 100 100 98 92 91 86 98 98 93 100 100 100 100 100 80 60 64 66 56 58 66 83 79 73 86 83 68 35 21
100 96 100 100 100 100 95 97 100 100 100 100 100 100 100 100 100 100 100 77 82 86 86 100 100 93 75 77 100 98 100 94 100 100 100 100 81 69 78 77 91 86 72 78 84 66 52 30 20
89 98 100 100 100 97 97 100 100 100 100 100 100 100 100 97 96 93 90 89 88 94 97 100 85 81 96 91 98 100 100 100 100 100 100 100 100 100 99 100 100 100 100 95 77 50 21 22 33
96 100 87 94 100 100 97 98 96 95 94 96 97 100 99 96 86 77 70 71 65 61 57 54 51 66 82 99 100 100 99 97 100 100 100 100 100 100 100 100 97 87 87 71 29 24 39 46 48
95 97 99 100 100 100 93 91 86 80 76 65 57 66 70 69 64 45 31 26 26 30 42 55 60 68 86 94 89 84 91 100 100 100 100 100 100 72 59 53 35 25 23 27 48 53 52 48 46
90 94 88 87 81 73 66 59 56 68 67 61 43 33 21 12 26 36 55 77 87 90 88 83 88 73 77 81 95 94 87 96 96 83 54 42 29 28 24 22 24 41 59 58 50 43 40 38 38
61 36 22 19 15 12 10 12 18 21 24 28 28 24 20 30 41 68 91 85 71 61 58 50 49 44 35 33 37 43 36 38 38 31 28 25 30 39 49 56 56 48 46 44 40 39 53 60 58
12 5 4 8 10 9 9 9 16 29 23 24 44 62 71 73 66 51 36 27 24 23 21 23 25 26 26 30 32 34 36 34 36 44 50 53 50 46 45 45 44 42 45 53 51 44 41 40 40
10 16 17 16 18 42 76 95 99 90 76 70 52 29 25 22 21 21 22 25 26 27 31 37 39 42 45 50 53 49 45 43 40 40 40 40 41 38 37 40 45 44 41 40 44 46 45 42 43
17 29 46 69 96 93 80 65 59 51 39 22 19 20 28 33 33 37 42 49 48 48 46 44 39 38 36 37 38 39 39 38 38 37 36 34 35 37 36 38 43 47 50 47 46 50 56 59 55
48 76 77 42 27 32 26 21 18 18 22 25 31 42 51 55 50 44 42 43 43 44 43 41 44 44 41 38 37 36 36 36 34 34 33 33 35 44 49 52 52 49 50 54 58 64 66 54 48
48 36 22 18 19 19 21 22 24 30 36 51 58 51 51 50 52 58 61 58 53 48 43 39 37 35 33 30 28 28 29 31 32 32 37 49 54 59 60 59 59 58 59 66 67 62 56 49 36
18 22 22 23 26 31 36 44 52 56 52 52 58 60 61 64 64 53 44 36 33 33 36 39 38 36 35 38 41 42 42 46 52 62 70 75 72 65 61 61 59 58 67 75 58 43 29 19 14
26 34 47 59 63 59 57 55 55 57 55 54 58 60 50 38 34 33 33 38 37 35 35 37 44 53 61 74 85 92 99 95 88 79 68 61 57 55 54 54 62 70 65 52 29 22 16 10 8
51 48 48 49 48 49 48 49 52 52 54 51 45 39 36 36 38 39 44 50 57 56 59 61 72 82 88 88 84 85 75 64 59 56 56 55 53 51 60 68 78 64 47 25 18 14 9 7 6
44 41 40 41 44 47 51 54 49 47 44 40 40 41 43 47 44 51 64 71 73 80 88 83 78 75 66 55 55 53 49 50 52 56 53 56 53 66 76 70 65 53 34 21 14 10 7 6 5
54 54 51 51 54 60 56 51 47 43 44 46 47 48 51 55 62 65 66 72 83 84 76 78 74 61 52 48 46 45 46 50 53 50 52 51 68 76 73 68 54 41 24 15 10 8 6 5 4

GFSSGP_250_rhum_012.txt.gz
RH
6 8 12 14 16 19 20 17 17 18 19 21 23 22 24 25 22 24 26 30 38 72 80 88 87 86 96 93 100 100 100 100 100 100 100 96 85 74 61 80 67 53 48 69 58 59 84 45 29
8 8 8 11 16 18 17 20 20 21 22 20 24 29 26 24 27 33 79 87 100 100 91 72 80 100 93 94 86 100 100 100 100 100 93 91 84 67 65 64 59 57 91 55 58 64 42 36 59
8 8 9 11 15 14 16 19 20 20 21 20 22 26 29 28 27 58 97 100 100 99 86 87 99 100 100 99 97 97 97 100 98 100 91 90 72 66 54 57 87 81 77 66 56 46 40 51 54
8 8 8 8 10 15 16 16 17 17 17 17 19 22 29 28 28 41 73 100 100 100 91 100 100 97 100 100 90 100 94 95 84 65 59 76 74 75 60 100 88 65 64 62 56 56 68 58 75
8 8 9 8 9 9 11 14 15 14 15 16 16 18 22 24 29 30 75 100 100 100 100 100 100 100 98 84 80 90 76 63 73 79 81 82 70 73 98 71 76 58 49 69 69 64 71 67 63
10 10 11 11 12 9 10 10 10 10 10 12 13 16 18 31 38 51 100 100 100 100 99 99 98 100 98 95 100 99 91 100 97 91 76 74 100 82 84 94 92 70 91 86 72 73 77 90 91
17 17 19 21 15 11 13 12 12 14 12 13 13 17 22 26 35 76 94 88 100 100 100 100 100 100 80 96 100 100 100 91 100 82 84 92 87 95 92 99 81 96 82 56 82 77 89 71 84
26 24 25 22 18 18 20 21 23 23 25 27 23 29 36 38 42 48 97 100 100 100 100 94 88 100 88 97 100 100 100 100 94 99 97 100 100 99 75 93 84 83 64 73 72 82 71 84 49
28 32 44 38 38 35 38 45 48 44 57 69 38 44 50 56 55 54 97 100 100 100 100 100 100 100 94 98 94 96 96 100 100 96 100 98 99 99 96 91 79 73 64 74 65 69 65 43 47
44 52 83 76 78 69 69 58 60 62 62 94 64 60 68 73 97 100 96 100 100 100 100 100 100 100 100 100 100 100 100 100 100 100 100 100 100 95 91 75 73 76 81 67 48 48 43 43 36
80 92 94 89 99 96 88 90 74 95 100 100 87 83 74 100 99 100 100 100 92 96 100 90 86 86 85 100 100 100 99 100 100 100 100 93 90 87 68 73 69 62 65 46 43 50 43 40 33
94 99 100 100 100 99 93 91 85 94 93 95 92 83 79 100 100 99 100 100 100 100 100 100 100 100 100 100 100 100 100 100 96 96 94 86 85 68 68 70 72 60 52 56 57 61 48 40 52
100 100 100 98 100 100 100 98 98 94 97 98 96 93 80 87 100 100 100 100 100 100 100 100 100 100 100 100 100 94 100 100 100 96 84 71 68 81 64 57 46 48 60 53 41 37 51 74 93
100 98 100 100 100 100 100 100 100 99 99 100 100 99 89 86 96 100 100 100 100 83 99 100 100 100 97 97 85 96 86 85 88 83 77 80 74 94 78 77 66 65 58 60 57 100 100 100 95
100 100 100 100 100 100 100 100 100 100 100 99 98 96 100 100 98 98 84 91 93 92 78 73 66 65 72 87 96 83 84 86 89 82 78 82 89 100 100 100 100 100 99 100 100 100 95 74 43
100 100 100 92 100 100 100 100 100 100 100 96 86 84 90 100 100 100 100 100 100 99 99 96 79 81 79 75 80 88 100 99 98 97 100 100 100 100 100 100 100 100 100 100 100 92 39 25 22
100 100 100 100 100 100 100 100 96 92 96 100 100 100 100 100 99 94 91 93 89 82 78 65 51 47 44 60 78 82 100 96 100 100 100 100 100 100 100 100 100 100 92 81 41 24 30 43 48
100 100 100 100 100 99 100 100 100 97 100 96 92 90 86 75 73 83 89 81 74 57 43 35 42 57 74 80 99 100 100 100 100 100 100 100 100 100 100 90 59 35 30 30 43 48 49 52 52
100 100 100 100 100 100 100 100 100 97 92 90 83 76 69 62 42 29 24 21 21 34 54 69 74 84 78 74 69 76 62 72 74 46 42 39 43 40 36 35 44 49 48 50 51 51 50 48 43
100 99 97 99 91 87 87 86 76 55 39 32 35 36 36 31 26 42 61 74 78 80 74 61 49 37 27 23 22 24 23 24 26 31 35 39 42 46 48 48 46 49 48 44 42 41 42 51 62
100 98 88 57 39 20 16 12 9 11 21 16 12 14 38 68 74 76 65 52 40 27 21 19 22 26 32 34 38 42 42 44 46 50 53 54 51 50 50 49 48 49 48 45 50 59 54 48 46
65 48 24 6 5 14 14 16 17 17 26 40 59 67 65 39 36 23 20 22 25 32 39 45 48 49 51 52 50 50 50 51 56 58 58 56 56 52 47 46 45 43 41 41 43 42 46 47 51
16 9 7 15 18 17 20 38 43 68 72 41 26 22 20 20 25 34 44 44 47 48 53 55 54 52 50 50 49 48 45 45 45 44 41 37 34 33 34 36 41 45 44 42 47 51 55 59 63
10 17 30 36 49 56 57 61 56 29 21 22 24 29 41 42 40 43 50 55 56 51 46 44 41 37 35 35 35 37 36 36 38 34 31 31 33 35 35 38 41 43 48 55 60 64 62 72 73
57 81 81 79 59 50 25 20 19 22 26 42 44 43 45 49 59 60 50 43 40 39 39 37 36 36 38 42 45 46 46 47 44 42 42 41 37 40 48 56 60 64 64 63 60 65 72 62 53
66 56 41 27 21 22 24 33 42 47 48 48 51 59 68 64 50 45 40 36 35 33 32 36 42 45 44 57 70 72 72 64 58 49 45 46 47 53 62 66 60 53 55 60 66 60 50 46 33
20 19 22 23 32 48 49 48 46 48 54 64 70 71 52 44 41 37 35 34 35 42 48 51 56 62 70 80 96 93 93 87 76 64 52 52 59 62 52 51 56 69 69 68 64 53 43 26 16
23 34 42 50 50 45 48 53 54 59 65 70 61 53 48 45 42 41 36 36 43 56 63 69 74 80 86 86 80 75 76 65 52 52 54 49 47 51 56 65 70 74 77 62 41 32 20 15 12
61 56 51 50 55 60 67 70 66 64 61 58 53 49 45 44 50 47 43 48 53 62 70 78 86 87 81 81 79 74 65 51 51 48 46 49 55 56 68 75 67 71 51 41 30 19 17 14 10
48 48 55 65 67 69 69 70 65 61 60 55 53 52 51 51 51 54 52 48 57 69 84 99 99 97 86 83 79 71 58 57 56 53 56 59 59 65 81 73 68 53 42 29 24 19 14 9 8